Fort Lewis, WA
on Saturday, November 10, 2012

Saturday
Previous Day Next Day
Daily Summary
 ActualAverage (KOLM)Record (KOLM)
Temperature
Mean Temperature °F 45°F  
Max Temperature 44°F 52°F 62°F (1954)
Min Temperature 23°F 38°F 20°F (2012)
Degree Days
Heating Degree Days 32 20  
Month to date heating degree days 194  
Since 1 July heating degree days 988  
Cooling Degree Days 0 0  
Month to date cooling degree days 0  
Year to date cooling degree days 106  
Moisture
Dew Point 26°F   
Average Humidity 80    
Maximum Humidity 94    
Minimum Humidity 44    
Precipitation
Precipitation 0.00 in 0.29 in 1.90 in (1962)
Month to date precipitation 2.58  
Year to date precipitation 36.49  
Wind
Wind Speed 4 mph   
Max Wind Speed 8 mph   
Max Gust Speed mph   
Visibility 10 miles   
Events     

Key: T is trace of precipitation, MM is missing value
Source: NWS Daily Summary
Time(PST)TemperatureDew PointHumidity Pressure Visibility Wind DirectionWind SpeedGust SpeedPrecipitationEvents Conditions
12:58 AM 26.4°F 24.6°F 93% 29.98 in 10.0 miles SE 4.6 mph - N/A   Clear
1:58 AM 26.6°F 25.0°F 94% 29.99 in 10.0 miles ESE 4.6 mph - N/A   Clear
2:58 AM 25.3°F 23.5°F 93% 30.00 in 10.0 miles SE 4.6 mph - N/A   Clear
3:58 AM 25.2°F 23.7°F 94% 30.01 in 10.0 miles SE 3.5 mph - N/A   Clear
4:58 AM 24.6°F 22.5°F 91% 30.03 in 10.0 miles East 1.2 mph - N/A   Clear
5:58 AM 26.1°F 24.6°F 94% 30.05 in 10.0 miles ESE 3.5 mph - N/A   Clear
6:58 AM 23.0°F 20.7°F 91% 30.05 in 10.0 miles SE 2.3 mph - N/A   Clear
7:58 AM 26.4°F 24.8°F 94% 30.09 in 10.0 miles ESE 1.2 mph - N/A   Overcast
8:58 AM 29.8°F 28.0°F 93% 30.09 in 10.0 miles SE 2.3 mph - N/A   Overcast
9:58 AM 33.6°F 31.1°F 90% 30.11 in 10.0 miles SE 3.5 mph - N/A   Mostly Cloudy
10:59 AM 40.6°F 32.7°F 73% 30.12 in 10.0 miles SE 2.3 mph - N/A   Scattered Clouds
11:59 AM 43.2°F 28.4°F 56% 30.13 in 10.0 miles NNE 4.6 mph - N/A   Clear
12:58 PM 44.6°F 28.4°F 53% 30.15 in 10.0 miles NNE 2.3 mph - N/A   Clear
1:59 PM 44.6°F 27.3°F 51% 30.15 in 10.0 miles North 4.6 mph - N/A   Clear
2:59 PM 44.8°F 24.4°F 45% 30.15 in 10.0 miles ENE 8.1 mph - N/A   Clear
3:59 PM 43.5°F 22.8°F 44% 30.16 in 10.0 miles NNE 3.5 mph - N/A   Clear
4:58 PM 39.2°F 26.6°F 61% 30.17 in 10.0 miles SE 2.3 mph - N/A   Clear
5:59 PM 32.5°F 26.2°F 78% 30.19 in 10.0 miles SE 3.5 mph - N/A   Clear
6:59 PM 29.7°F 25.7°F 85% 30.21 in 10.0 miles SSE 4.6 mph - N/A   Clear
7:59 PM 28.2°F 24.6°F 86% 30.21 in 10.0 miles East 2.3 mph - N/A   Clear
8:59 PM 28.2°F 25.2°F 88% 30.22 in 10.0 miles SE 5.8 mph - N/A   Clear
9:59 PM 28.4°F 26.2°F 92% 30.23 in 10.0 miles SE 5.8 mph - N/A   Clear
10:58 PM 27.9°F 25.9°F 92% 30.22 in 10.0 miles SE 2.3 mph - N/A   Clear
11:58 PM 28.9°F 27.0°F 92% 30.23 in 10.0 miles SE 4.6 mph - N/A   Clear
Moon Phase
Nov. 10 Nov. 13 Nov. 20 Nov. 28 Dec. 06
Sunrise:07:07 AM (PST) Moon Rise:03:05 AM (PST)11/10
Sunset:04:40 PM (PST) Moon Set:02:41 PM (PST)11/10

Copyright © 2014 The Weather Underground, Inc.